Location: Bouchavesnes-Bergen
(49.9859°N, 2.9203°E)
Time: 10:42:51
(UTC+00:00)

ADEOS II - Pass Details

Date: 09 March 2021
Orbit: 799 x 801 km, 98.6° (Epoch: 12 April)

Event Time Altitude Azimuth Distance (km) Brightness Sun altitude
Rises 02:12:34 0° 15° (NNE) 3,324 6.1 -36.5°
Reaches altitude 10° 02:14:55 10° 16° (NNE) 2,389 5.2 -36.2°
Enters shadow 02:17:30 30° 18° (NNE) 1,409 3.7 -35.9°
